Regional Weather Roundup
Issued by NWS

Home | Current Version | Previous Version | Graphics & Text | Print | Product List | Glossary On
Versions: 1 2 3 4 5 6 7 8 9 10 11 12 13 14 15 16 17 18 19 20 21 22 23 24 25 26 27 28 29 30 31 32 33 34 35 36 37 38 39 40 41 42 43 44 45 46 47 48 49 50
000
ASUS45 KCYS 272310
RWRWY

WYOMING REGIONAL WEATHER ROUNDUP
NATIONAL WEATHER SERVICE CHEYENNE WY
500 PM MDT THU AUG 27 2015

NOTE:  "FAIR" INDICATES FEW OR NO CLOUDS BELOW 12,000 FEET
WITH NO SIGNIFICANT WEATHER AND/OR OBSTRUCTIONS TO VISIBILITY.

WYZ001-280000-
YELLOWSTONE NATIONAL PARK

CITY           SKY/WX    TMP DP  RH WIND       PRES   REMARKS
LK YELLOWSTONE   N/A     54  49  83 CALM      30.39R
W YELLOWSTONE  NOT AVBL

$$
WYZ002>013-054>058-071-098>099-280000-
NORTHERN WYOMING

CITY           SKY/WX    TMP DP  RH WIND       PRES   REMARKS
JACKSON        FAIR      73  52  46 S3        30.26F
CODY           CLOUDY    66  45  45 NW21G38   30.23R
GREYBULL       FAIR      81  48  31 VRB5      30.09R
WORLAND        FAIR      79  56  45 N5        30.09F
SHERIDAN       FAIR      86  44  23 NW15      30.03F
BUFFALO        FAIR      83  43  24 N14       30.11S
GILLETTE       FAIR      81  48  31 W7        30.05F
HULETT         FAIR      82  50  32 CALM      30.05F
NEWCASTLE      FAIR      82  43  24 N9        30.05F

$$
WYZ014>020-022>026-101>103-280000-
CENTRAL WYOMING

CITY           SKY/WX    TMP DP  RH WIND       PRES   REMARKS
BIG PINEY      FAIR      74  40  29 NW16G24   30.31R
PINEDALE       FAIR      73  37  27 NW17G26   30.31R
DUBOIS         FAIR      72  37  28 N13G18    30.28S
LANDER         FAIR      77  47  34 CALM      30.17F
RIVERTON       FAIR      75  49  39 SE3       30.18S
CASPER         PTSUNNY   77  45  32 S8        30.13F
DOUGLAS        CLOUDY    78  45  30 NW8       30.12S

$$
WYZ021-027>030-104>119-280000-
SOUTHERN WYOMING

CITY           SKY/WX    TMP DP  RH WIND       PRES   REMARKS
EVANSTON       FAIR      78  37  22 NW14G25   30.33F
KEMMERER       FAIR      72  41  33 W18G28    30.35R
FORT BRIDGER   PTCLDY    79  37  22 NW17      30.35R
ROCK SPRINGS   LGT RAIN  71  32  23 CALM      30.28R
DIXON          MOCLDY    78  42  27 NW6       30.25F
RAWLINS        PTSUNNY   72  53  51 SW12      30.24F
SARATOGA       MOCLDY    68  52  56 CALM      30.28F
LARAMIE        PTSUNNY   69  48  47 NW16      30.27F
CHEYENNE       PTSUNNY   74  47  38 N15       30.18F
TORRINGTON     FAIR      80  52  37 N9        30.05S
PINE BLUFFS    LGT RAIN  75  52  43 N15       30.12F

$$



USA.gov is the U.S. government's official web portal to all federal, state and local government web resources and services.